This is the latest recevied weather packets stored in our database for station/object KC8JWT. If no packets are shown the sender has not sent any weather packets the latest 10 day(s).
| Time | Temp. | Humidity | Pressure | Rain* | Wind** | Luminosity | Snow |
|---|---|---|---|---|---|---|---|
| 1777943399 | 18.33° C | 72% | 1007.6 hPa | 0 mm | - | 0 W/m² | - |
| 1777943095 | 18.33° C | 72% | 1007.4 hPa | 0 mm | - | 0 W/m² | - |
| 1777942791 | 18.89° C | 71% | 1007.8 hPa | 0 mm | - | 0 W/m² | - |
| 1777942488 | 18.89° C | 70% | 1007.6 hPa | 0 mm | - | 0 W/m² | - |
| 1777942186 | 19.44° C | 69% | 1007.7 hPa | 0 mm | - | 0 W/m² | - |
| 1777941882 | 19.44° C | 69% | 1007.7 hPa | 0 mm | - | 0 W/m² | - |
| 1777941579 | 20° C | 68% | 1007.4 hPa | 0 mm | - | 0 W/m² | - |
| 1777941276 | 20° C | 68% | 1007.6 hPa | 0 mm | - | 0 W/m² | - |
| 1777940972 | 19.44° C | 68% | 1007.7 hPa | 0 mm | - | 0 W/m² | - |
| 1777940669 | 20° C | 67% | 1007.7 hPa | 0 mm | - | 1 W/m² | - |
| 1777940367 | 20° C | 67% | 1007.8 hPa | 0 mm | - | 4 W/m² | - |
| 1777940065 | 20.56° C | 66% | 1008 hPa | 0 mm | - | 7 W/m² | - |
| 1777939762 | 20.56° C | 66% | 1007.8 hPa | 0 mm | - | 10 W/m² | - |
| 1777939460 | 20.56° C | 65% | 1007.7 hPa | 0 mm | - | 14 W/m² | - |
| 1777939156 | 21.11° C | 64% | 1007.8 hPa | 0 mm | - | 21 W/m² | - |
| 1777938853 | 21.11° C | 63% | 1008.1 hPa | 0 mm | - | 24 W/m² | - |
| 1777938549 | 21.67° C | 63% | 1008.1 hPa | 0 mm | - | 28 W/m² | - |
| 1777938247 | 22.22° C | 62% | 1008.3 hPa | 0 mm | - | 31 W/m² | - |
| 1777937943 | 22.78° C | 60% | 1007.9 hPa | 0 mm | - | 32 W/m² | - |
| 1777937639 | 23.33° C | 59% | 1007.9 hPa | 0 mm | - | 39 W/m² | - |
| 1777937336 | 23.89° C | 58% | 1008.1 hPa | 0 mm | - | 49 W/m² | - |
| 1777937033 | 23.89° C | 57% | 1008 hPa | 0 mm | - | 56 W/m² | - |
| 1777936730 | 23.89° C | 57% | 1008 hPa | 0 mm | - | 84 W/m² | - |
| 1777936426 | 23.89° C | 58% | 1008 hPa | 0 mm | - | 101 W/m² | - |
| 1777936123 | 23.89° C | 57% | 1008.3 hPa | 0 mm | - | 75 W/m² | - |
* Rain latest hour (hover to see other rain measurements)
** Current wind speed in m/s (hover to see current wind gust speed)